This demonstration page uses our WeatherBlox Daily Observations layout. Learn more.

Left ArrowRight Arrow

Hourly Observations for February 26, 2016

Temp ( °F °C ) Dew Point ( °F °C ) Humidity (%) Winds ( mph kmh ) Pressure ( in mb ) Visibility ( mi km ) Precip ( " mm )
12:59 am 00:59 Partly Cloudy 45 7.2 26 -3.3 48 48 W 20 31 29.85 1011 10 16 0.00 0.00
1:59 am 01:59 Mostly Cloudy 45 7.2 26 -3.3 48 48 W 17 28 29.86 1011 10 16 0.00 0.00
2:59 am 02:59 Mostly Cloudy 44 6.7 27 -2.8 51 51 W 15 24 29.87 1012 10 16 0.00 0.00
3:59 am 03:59 Partly Cloudy 43 6.1 27 -2.8 53 53 W 15 24 29.88 1012 10 16 0.00 0.00
4:59 am 04:59 Partly Cloudy 41 5 27 -2.8 57 57 W 12 19 29.90 1013 10 16 0.00 0.00
5:59 am 05:59 Mostly Clear 41 5 27 -2.8 57 57 W 13 20 29.93 1014 10 16 0.00 0.00
6:59 am 06:59 Mostly Sunny 39 3.9 27 -2.8 62 62 NW 9 15 29.96 1015 10 16 0.00 0.00
7:59 am 07:59 Mostly Sunny 42 5.6 27 -2.8 55 55 N 9 15 30.00 1016 10 16 0.00 0.00
8:59 am 08:59 Mostly Sunny 44 6.7 23 -5 43 43 N 12 19 30.02 1017 10 16 0.00 0.00
9:59 am 09:59 Mostly Sunny 46 7.8 25 -3.9 44 44 NNW 9 15 30.03 1017 10 16 0.00 0.00
10:59 am 10:59 Partly Cloudy 44 6.7 26 -3.3 49 49 WNW 15 24 30.05 1018 10 16 0.00 0.00
11:59 am 11:59 Mostly Cloudy 46 7.8 23 -5 40 40 WNW 16 26 30.04 1017 10 16 0.00 0.00
12:59 pm 12:59 Partly Cloudy 49 9.4 22 -5.6 35 35 NW 15 24 30.03 1017 10 16 0.00 0.00
1:59 pm 13:59 Partly Cloudy 50 10 22 -5.6 33 33 NW 18 30 30.02 1017 10 16 0.00 0.00
2:59 pm 14:59 Partly Cloudy 50 10 20 -6.7 30 30 NW 17 28 30.03 1017 10 16 0.00 0.00
3:59 pm 15:59 Partly Cloudy 49 9.4 20 -6.7 32 32 NW 18 30 30.04 1017 10 16 0.00 0.00
4:59 pm 16:59 Mostly Sunny 47 8.3 19 -7.2 33 33 NW 20 31 30.05 1018 10 16 0.00 0.00
5:59 pm 17:59 Mostly Clear 45 7.2 16 -8.9 31 31 WNW 16 26 30.08 1019 10 16 0.00 0.00
6:59 pm 18:59 Partly Cloudy 42 5.6 22 -5.6 45 45 N 13 20 30.12 1020 10 16 0.00 0.00
7:59 pm 19:59 Mostly Clear 41 5 17 -8.3 38 38 N 12 19 30.14 1021 10 16 0.00 0.00
8:59 pm 20:59 Mostly Clear 39 3.9 16 -8.9 39 39 N 13 20 30.17 1022 10 16 0.00 0.00
9:59 pm 21:59 Mostly Clear 38 3.3 16 -8.9 41 41 N 14 22 30.19 1023 10 16 0.00 0.00
10:59 pm 22:59 Mostly Clear 37 2.8 17 -8.3 44 44 N 13 20 30.21 1023 10 16 0.00 0.00
11:59 pm 23:59 Mostly Clear 35 1.7 17 -8.3 48 48 N 7 11 30.22 1023 10 16 0.00 0.00

Powered by AerisWeather